Latest Weather Observations for Holmes Reef

IDQ60801

Issued at 10:02 pm EST Tuesday 4 August 2015 (issued every 30 minutes, with the page automatically refreshed every 10 minutes)

About weather observations | Map of weather stations | Latest weather observations for QLD | Other Formats
Station Details ID: 200732 Name: HOLMES REEF Lat: -16.47 Lon: 147.87 Height: 1.9 m
Data from the previous 72 hours. | See also: Recent months at Holmes Reef
Date/Time
EST
Temp
°C
App
Temp
°C
Dew
Point
Rel
Hum
%
Delta-T
°C
Wind Press
QNH
hPa
Press
MSL
hPa
Rain
since 9 am
mm
Dir
 
Spd
km/h
Gust
km/h
Spd
kts
Gust
kts
04/09:30pm 23.9 - - - - ESE 30 33 16 18 1015.5 - -
04/09:15pm 23.9 - - - - ESE 32 - 17 - - 1015.1 -
04/09:00pm 23.9 - - - - SE 30 35 16 19 1015.4 - -
04/08:30pm 24.0 - - - - SE 32 35 17 19 1015.4 - -
04/08:15pm 24.0 - - - - SE 32 - 17 - - 1015.0 -
04/08:00pm 24.0 - - - - SE 32 35 17 19 1015.2 - -
04/07:30pm 23.9 - - - - SE 32 35 17 19 1014.8 - -
04/07:15pm 24.0 - - - - SE 32 - 17 - - 1014.4 -
04/07:00pm 24.0 - - - - SE 32 35 17 19 1014.5 - -
04/06:30pm 24.0 - - - - SE 32 35 17 19 1014.3 - -
04/06:15pm 24.1 - - - - SSE 32 - 17 - - 1014.0 -
04/06:00pm 24.1 - - - - SSE 30 33 16 18 1014.2 - -
04/05:30pm 24.2 - - - - SSE 30 33 16 18 1014.1 - -
04/05:15pm 24.3 - - - - SSE 28 - 15 - - 1013.6 -
04/05:00pm 24.3 - - - - SSE 30 33 16 18 1013.8 - -
04/04:30pm 24.3 - - - - SSE 30 35 16 19 1013.6 - -
04/04:15pm 24.3 - - - - SSE 30 - 16 - - 1013.3 -
04/04:00pm 24.2 - - - - SSE 28 32 15 17 1013.4 - -
04/03:30pm 24.3 - - - - SSE 28 33 15 18 1013.5 - -
04/03:15pm 24.4 - - - - SSE 28 - 15 - - 1013.2 -
04/03:00pm 24.6 - - - - SSE 28 32 15 17 1013.6 - -
04/02:30pm 24.7 - - - - SSE 24 28 13 15 1013.9 - -
04/02:15pm 24.8 - - - - SSE 24 - 13 - - 1013.8 -
04/02:00pm 24.7 - - - - SE 24 28 13 15 1014.4 - -
04/01:30pm 24.6 - - - - SE 24 28 13 15 1014.7 - -
04/01:15pm 24.5 - - - - SE 22 - 12 - - 1014.5 -
04/01:00pm 24.3 - - - - SE 24 28 13 15 1015.0 - -
04/12:30pm 24.3 - - - - ESE 24 28 13 15 1015.1 - -
04/12:15pm 24.4 - - - - ESE 24 - 13 - - 1015.1 -
04/12:00pm 24.3 - - - - ESE 24 26 13 14 1015.6 - -
04/11:30am 24.3 - - - - ESE 24 26 13 14 1015.9 - -
04/11:15am 24.4 - - - - ESE 22 - 12 - - 1015.8 -
04/11:00am 24.3 - - - - ESE 22 26 12 14 1016.3 - -
04/10:30am 24.3 - - - - ESE 22 26 12 14 1016.6 - -
04/10:15am 24.4 - - - - ESE 24 - 13 - - 1016.4 -
04/10:00am 24.3 - - - - ESE 22 26 12 14 1016.7 - -
04/09:30am 24.3 - - - - ESE 24 28 13 15 1016.5 - -
04/09:15am 24.2 - - - - ESE 24 - 13 - - 1016.1 -
04/09:00am 24.3 - - - - ESE 22 26 12 14 1016.4 - -
04/08:30am 24.2 - - - - ESE 26 28 14 15 1016.1 - -
04/08:15am 24.3 - - - - ESE 24 - 13 - - 1015.8 -
04/08:00am 24.1 - - - - ESE 26 32 14 17 1015.9 - -
04/07:30am 24.0 - - - - ESE 28 32 15 17 1015.4 - -
04/07:15am 23.9 - - - - ESE 28 - 15 - - 1015.0 -
04/07:00am 23.8 - - - - ESE 28 32 15 17 1015.2 - -
04/06:30am 23.7 - - - - ESE 28 30 15 16 1015.1 - -
04/06:15am 23.7 - - - - ESE 26 - 14 - - 1014.7 -
04/06:00am 23.7 - - - - SE 26 32 14 17 1015.0 - -
04/05:30am 23.7 - - - - ESE 26 30 14 16 1014.8 - -
04/05:15am 23.8 - - - - ESE 26 - 14 - - 1014.5 -
04/05:00am 23.7 - - - - ESE 24 28 13 15 1014.7 - -
04/04:30am 23.6 - - - - ESE 24 30 13 16 1014.6 - -
04/04:15am 23.7 - - - - ESE 24 - 13 - - 1014.3 -
04/04:00am 23.8 - - - - SE 26 30 14 16 1014.7 - -
04/03:30am 23.8 - - - - SE 28 32 15 17 1014.8 - -
04/03:15am 23.7 - - - - SE 30 - 16 - - 1014.5 -
04/03:00am 23.8 - - - - SE 28 33 15 18 1014.9 - -
04/02:30am 23.8 - - - - SE 26 30 14 16 1015.1 - -
04/02:15am 23.7 - - - - SE 28 - 15 - - 1014.9 -
04/02:00am 23.8 - - - - SE 26 28 14 15 1015.3 - -
04/01:30am 23.8 - - - - SE 26 30 14 16 1015.8 - -
04/01:15am 23.9 - - - - SE 26 - 14 - - 1015.6 -
04/01:00am 23.9 - - - - SE 26 28 14 15 1016.1 - -
04/12:30am 23.9 - - - - ESE 26 30 14 16 1016.3 - -
04/12:15am 24.1 - - - - ESE 26 - 14 - - 1016.0 -
04/12:00am 24.0 - - - - ESE 26 30 14 16 1016.3 - -
 
Date/Time
EST
Temp
°C
App
Temp
°C
Dew
Point
Rel
Hum
%
Delta-T
°C
Wind Press
QNH
hPa
Press
MSL
hPa
Rain
since 9 am
mm
Dir
 
Spd
km/h
Gust
km/h
Spd
kts
Gust
kts
03/11:30pm 24.1 - - - - ESE 26 30 14 16 1016.3 - -
03/11:15pm 24.1 - - - - ESE 24 - 13 - - 1016.1 -
03/11:00pm 24.2 - - - - ESE 24 28 13 15 1016.7 - -
03/10:30pm 24.2 - - - - ESE 24 26 13 14 1016.8 - -
03/10:15pm 24.2 - - - - ESE 24 - 13 - - 1016.5 -
03/10:00pm 24.2 - - - - ESE 24 28 13 15 1016.8 - -
03/09:30pm 24.2 - - - - SE 24 28 13 15 1016.7 - -
03/09:15pm 24.2 - - - - ESE 26 - 14 - - 1016.4 -
03/09:00pm 24.2 - - - - SE 28 32 15 17 1016.7 - -
03/08:30pm 24.3 - - - - SE 26 30 14 16 1016.7 - -
03/08:15pm 24.2 - - - - SE 26 - 14 - - 1016.4 -
03/08:00pm 24.2 - - - - SE 26 30 14 16 1016.6 - -
03/07:30pm 24.1 - - - - SE 26 30 14 16 1016.4 - -
03/07:15pm 24.2 - - - - SE 26 - 14 - - 1015.9 -
03/07:00pm 24.2 - - - - SE 28 32 15 17 1016.1 - -
03/06:30pm 24.2 - - - - SE 28 30 15 16 1016.1 - -
03/06:15pm 24.2 - - - - SE 26 - 14 - - 1015.8 -
03/06:00pm 24.3 - - - - SE 26 30 14 16 1016.0 - -
03/05:30pm 24.3 - - - - SE 26 32 14 17 1015.8 - -
03/05:15pm 24.4 - - - - SE 28 - 15 - - 1015.5 -
03/05:00pm 24.5 - - - - SE 28 32 15 17 1015.6 - -
03/04:30pm 24.7 - - - - SE 30 33 16 18 1015.6 - -
03/04:15pm 24.6 - - - - SE 28 - 15 - - 1015.2 -
03/04:00pm 24.8 - - - - SE 28 32 15 17 1015.3 - -
03/03:30pm 24.7 - - - - SE 26 30 14 16 1015.4 - -
03/03:15pm 24.7 - - - - SE 26 - 14 - - 1015.1 -
03/03:00pm 24.7 - - - - SE 28 32 15 17 1015.4 - -
03/02:30pm 24.7 - - - - SE 26 28 14 15 1015.5 - -
03/02:15pm 24.8 - - - - SE 26 - 14 - - 1015.2 -
03/02:00pm 24.8 - - - - SSE 26 30 14 16 1015.6 - -
03/01:30pm 24.8 - - - - SE 28 32 15 17 1015.9 - -
03/01:15pm 24.6 - - - - ESE 28 - 15 - - 1015.8 -
03/01:00pm 24.7 - - - - ESE 26 32 14 17 1016.4 - -
03/12:30pm 24.7 - - - - ESE 26 32 14 17 1016.9 - -
03/12:15pm 24.7 - - - - ESE 28 - 15 - - 1016.9 -
03/12:00pm 24.7 - - - - ESE 26 30 14 16 1017.4 - -
03/11:30am 24.6 - - - - ESE 28 32 15 17 1017.9 - -
03/11:15am 24.6 - - - - ESE 28 - 15 - - 1017.7 -
03/11:00am 24.5 - - - - ESE 28 30 15 16 1018.2 - -
03/10:30am 24.2 - - - - ESE 26 30 14 16 1018.5 - -
03/10:15am 23.7 - - - - SE 28 - 15 - - 1018.2 -
03/09:30am 23.6 - - - - ESE 30 35 16 19 1018.6 - -
03/09:15am 23.7 - - - - SE 32 - 17 - - 1018.3 -
03/09:00am 24.1 - - - - ESE 28 32 15 17 1018.6 - -
03/08:30am 23.8 - - - - ESE 28 30 15 16 1018.2 - -
03/08:15am 24.0 - - - - ESE 28 - 15 - - 1017.7 -
03/08:00am 23.8 - - - - ESE 32 37 17 20 1017.8 - -
03/07:30am 23.9 - - - - ESE 32 35 17 19 1017.6 - -
03/07:15am 23.8 - - - - ESE 33 - 18 - - 1017.2 -
03/07:00am 24.0 - - - - ESE 28 32 15 17 1017.4 - -
03/06:30am 23.9 - - - - SE 30 37 16 20 1017.1 - -
03/06:15am 23.8 - - - - SE 28 - 15 - - 1016.7 -
03/06:00am 23.8 - - - - SE 30 35 16 19 1016.9 - -
03/05:30am 23.7 - - - - SE 32 35 17 19 1016.7 - -
03/05:15am 23.8 - - - - SE 30 - 16 - - 1016.3 -
03/05:00am 23.7 - - - - SE 28 33 15 18 1016.7 - -
03/04:30am 23.6 - - - - ESE 30 35 16 19 1016.4 - -
03/04:15am 23.7 - - - - SE 30 - 16 - - 1016.1 -
03/04:00am 23.6 - - - - SE 30 33 16 18 1016.4 - -
03/03:30am 23.7 - - - - ESE 30 35 16 19 1016.6 - -
03/03:15am 23.6 - - - - ESE 32 - 17 - - 1016.3 -
03/03:00am 23.6 - - - - ESE 32 35 17 19 1016.7 - -
03/02:30am 23.7 - - - - ESE 30 33 16 18 1016.9 - -
03/02:15am 23.7 - - - - ESE 30 - 16 - - 1016.8 -
03/02:00am 23.8 - - - - SE 30 35 16 19 1017.3 - -
03/01:30am 23.8 - - - - SE 30 33 16 18 1017.6 - -
03/01:15am 23.9 - - - - SE 32 - 17 - - 1017.5 -
03/01:00am 23.8 - - - - ESE 35 39 19 21 1017.8 - -
03/12:30am 24.0 - - - - ESE 32 37 17 20 1018.1 - -
03/12:15am 24.0 - - - - ESE 33 - 18 - - 1017.8 -
03/12:00am 24.0 - - - - ESE 35 39 19 21 1018.2 - -
 
Date/Time
EST
Temp
°C
App
Temp
°C
Dew
Point
Rel
Hum
%
Delta-T
°C
Wind Press
QNH
hPa
Press
MSL
hPa
Rain
since 9 am
mm
Dir
 
Spd
km/h
Gust
km/h
Spd
kts
Gust
kts
02/11:30pm 23.9 - - - - ESE 37 41 20 22 1018.3 - -
02/11:15pm 24.0 - - - - ESE 37 - 20 - - 1018.0 -
02/11:00pm 24.1 - - - - ESE 37 41 20 22 1018.4 - -
02/10:30pm 24.1 - - - - ESE 35 41 19 22 1018.4 - -
02/10:15pm 24.2 - - - - ESE 37 - 20 - - 1018.0 -
02/10:00pm 24.2 - - - - ESE 37 44 20 24 1018.3 - -
02/09:30pm 24.2 - - - - ESE 35 41 19 22 1018.4 - -
02/09:15pm 24.2 - - - - ESE 35 - 19 - - 1018.0 -
02/09:00pm 24.1 - - - - ESE 35 41 19 22 1018.1 - -
02/08:30pm 24.0 - - - - ESE 33 39 18 21 1018.0 - -
02/08:15pm 24.1 - - - - ESE 33 - 18 - - 1017.7 -
02/08:00pm 24.0 - - - - ESE 35 41 19 22 1017.8 - -
02/07:30pm 23.9 - - - - ESE 32 41 17 22 1017.4 - -
02/07:15pm 23.3 - - - - SE 30 - 16 - - 1017.1 -
02/07:00pm 23.8 - - - - SE 32 37 17 20 1017.2 - -
02/06:30pm 23.9 - - - - SE 33 37 18 20 1016.9 - -
02/06:15pm 24.2 - - - - SE 32 - 17 - - 1016.5 -
02/06:00pm 24.2 - - - - SE 33 39 18 21 1016.8 - -
02/05:30pm 24.4 - - - - SE 30 35 16 19 1016.7 - -
02/05:15pm 24.6 - - - - ESE 30 - 16 - - 1016.5 -
02/05:00pm 24.6 - - - - ESE 32 35 17 19 1016.7 - -
02/04:30pm 24.7 - - - - ESE 30 33 16 18 1016.6 - -
02/04:15pm 24.7 - - - - ESE 28 - 15 - - 1016.2 -
02/04:00pm 24.7 - - - - ESE 28 32 15 17 1016.5 - -
02/03:30pm 24.8 - - - - ESE 28 32 15 17 1016.7 - -
02/03:15pm 24.8 - - - - ESE 28 - 15 - - 1016.4 -
02/03:00pm 24.8 - - - - ESE 28 33 15 18 1016.8 - -
02/02:30pm 24.7 - - - - ESE 30 33 16 18 1016.9 - -
02/02:15pm 24.7 - - - - ESE 30 - 16 - - 1016.7 -
02/02:00pm 24.7 - - - - ESE 30 33 16 18 1017.1 - -
02/01:30pm 24.5 - - - - ESE 33 37 18 20 1017.4 - -
02/01:15pm 24.5 - - - - ESE 30 - 16 - - 1017.5 -
02/01:00pm 24.4 - - - - ESE 28 32 15 17 1017.9 - -
02/12:30pm 24.3 - - - - ESE 30 35 16 19 1018.3 - -
02/12:15pm 24.2 - - - - E 33 - 18 - - 1018.2 -
02/12:00pm 24.5 - - - - ESE 30 35 16 19 1018.7 - -
02/11:30am 24.1 - - - - ESE 30 35 16 19 1018.9 - -
02/11:15am 24.5 - - - - ESE 28 - 15 - - 1018.7 -
02/11:00am 24.5 - - - - ESE 30 35 16 19 1019.2 - -
02/10:30am 24.5 - - - - ESE 30 35 16 19 1019.5 - -
02/10:15am 24.5 - - - - ESE 30 - 16 - - 1019.3 -
02/10:00am 24.5 - - - - ESE 30 33 16 18 1019.7 - -
02/09:30am 24.5 - - - - E 32 37 17 20 1019.6 - -
02/09:15am 24.6 - - - - E 30 - 16 - - 1019.2 -
02/09:00am 24.5 - - - - E 33 37 18 20 1019.4 - -
02/08:30am 24.5 - - - - E 26 32 14 17 1019.1 - -
02/08:15am 24.3 - - - - E 28 - 15 - - 1018.7 -
02/08:00am 24.0 - - - - E 30 39 16 21 1018.8 - -
02/07:30am 24.1 - - - - E 26 32 14 17 1018.5 - -
02/07:15am 24.2 - - - - E 30 - 16 - - 1018.1 -
02/07:00am 24.1 - - - - E 32 35 17 19 1018.2 - -
02/06:30am 24.3 - - - - E 35 43 19 23 1017.9 - -
02/06:15am 24.3 - - - - E 44 - 24 - - 1017.4 -
02/06:00am 24.3 - - - - E 43 50 23 27 1017.5 - -
02/05:30am 24.1 - - - - E 41 46 22 25 1017.4 - -
02/05:15am 24.0 - - - - ESE 35 - 19 - - 1017.1 -
02/05:00am 23.9 - - - - E 35 43 19 23 1017.3 - -
02/04:30am 24.0 - - - - ESE 30 35 16 19 1017.2 - -
02/04:15am 24.0 - - - - ESE 33 - 18 - - 1016.9 -
02/04:00am 24.1 - - - - E 35 41 19 22 1017.2 - -
02/03:30am 24.4 - - - - E 39 46 21 25 1017.2 - -
02/03:15am 24.0 - - - - E 39 - 21 - - 1016.9 -
02/03:00am 24.1 - - - - E 37 44 20 24 1017.3 - -
02/02:30am 24.3 - - - - ESE 33 39 18 21 1017.5 - -
02/02:15am 24.1 - - - - ESE 33 - 18 - - 1017.2 -
02/02:00am 24.0 - - - - E 32 35 17 19 1017.7 - -
02/01:30am 24.2 - - - - E 37 44 20 24 1017.7 - -
02/01:15am 24.2 - - - - E 41 - 22 - - 1017.4 -
02/01:00am 24.1 - - - - E 43 48 23 26 1017.8 - -
02/12:30am 24.1 - - - - ESE 35 41 19 22 1018.0 - -
02/12:15am 24.1 - - - - ESE 39 - 21 - - 1017.7 -
02/12:00am 24.1 - - - - ESE 39 44 21 24 1018.0 - -
 
Date/Time
EST
Temp
°C
App
Temp
°C
Dew
Point
Rel
Hum
%
Delta-T
°C
Wind Press
QNH
hPa
Press
MSL
hPa
Rain
since 9 am
mm
Dir
 
Spd
km/h
Gust
km/h
Spd
kts
Gust
kts
01/11:30pm 24.1 - - - - ESE 39 46 21 25 1018.2 - -
01/11:15pm 24.3 - - - - ESE 41 - 22 - - 1017.9 -
01/11:00pm 24.1 - - - - ESE 43 46 23 25 1018.2 - -
01/10:30pm 24.2 - - - - ESE 39 46 21 25 1018.1 - -
01/10:15pm 24.3 - - - - ESE 41 - 22 - - 1017.9 -

Other Formats:

Comma delimited format used in spreadsheet applications
http://www.bom.gov.au/fwo/IDQ60801/IDQ60801.94289.axf

JavaScript Object Notation format (JSON) in row-major order
http://www.bom.gov.au/fwo/IDQ60801/IDQ60801.94289.json